Ensenada, Mexico

6:12 AM PST on February 10, 2016 (GMT -0800)
Gringo Gulch | | Change Station
CLOSE
Current Station
Personal Weather Station
Location: ENSENADA, Baja California
Elevation: 423 ft
Nearby Weather Stations

Elev 423 ft 31.87 °N, 116.64 °W | Updated 3 minutes ago

Clear
Clear
59.8 °F
Feels Like 59.8 °F
N
1.0
Wind Variable Wind from ESE
Gusts 2.0 mph

Today
High -- | Low -- °F
--% Chance of Precip.
Yesterday
High -- | Low -- °F
Precip. -- in
Pressure 30.12 in
Visibility 10.0 miles
Clouds Clear
Dew Point 32 °F
Humidity 35%
Rainfall 0.00 in
Snow Depth Not available.
6:33 AM 5:28 PM
Waxing Crescent, 5% visible
METAR KSDM 101353Z AUTO 14007KT 10SM CLR 10/M01 A3012 RMK AO2 SLP198 T01001006
Pressure 30.12 in
Visibility 10.0 miles
Clouds Clear
Dew Point 32 °F
Humidity 35%
Rainfall 0.00 in
Snow Depth Not available.
6:33 AM 5:28 PM
Waxing Crescent, 5% visible
METAR KSDM 101353Z AUTO 14007KT 10SM CLR 10/M01 A3012 RMK AO2 SLP198 T01001006

10-Day Weather Forecast

Almanac

Astronomy

Feb. 10, 2016 Rise Set
Actual Time
Civil Twilight
Nautical Twilight
Astronomical Twilight
Moon
Length of Visible Light
Length of Day
Tomorrow will be .
, % of the Moon is Illuminated

Today's Extremes

Country Highs Country Lows

Community

WunderPhotos

Upload Photos

1,891,850 photos uploaded!

WunderBlog® & News

Nearby

Air Quality

  Air Quality AQ Index Pollutant
Not available.

Snow Depth

Station Depth Elevation

Earthquake Activity

City Distance Mag. Time & Date
Minimum magnitude displayed is 2.5.

Coastal Water Temperatures

Place Temperature

Stations

Nearby Weather Stations

Station Location Temp. Windchill Dew Point Humidity Wind Precip. Elev Updated Type